| time (UTC) | temp C | wind direction | speed KPH | gust KPH | rain 1hr cm | rain 24hr cm | rain mn cm | humidity % | barometer mb |
| 20260504215901 | 25 | 235 | 3.2 | 8.0 | 0.00 | 0.03 | 0.03 | 35 | 1009.7 |
| 20260504215400 | 25 | 232 | 3.2 | 9.7 | 0.00 | 0.03 | 0.03 | 34 | 1009.6 |
| 20260504214900 | 25 | 323 | 3.2 | 16.1 | 0.00 | 0.03 | 0.03 | 34 | 1009.6 |
| 20260504214359 | 25 | 238 | 3.2 | 16.1 | 0.00 | 0.03 | 0.03 | 34 | 1009.7 |
| 20260504213859 | 25 | 113 | 3.2 | 8.0 | 0.00 | 0.03 | 0.03 | 35 | 1009.8 |
| 20260504213354 | 25 | 204 | 3.2 | 8.0 | 0.00 | 0.03 | 0.03 | 34 | 1009.7 |
| 20260504212342 | 25 | 229 | 3.2 | 9.7 | 0.00 | 0.03 | 0.03 | 32 | 1009.7 |
| 20260504211836 | 25 | 212 | 3.2 | 9.7 | 0.00 | 0.03 | 0.03 | 33 | 1009.7 |
| 20260504211329 | 26 | 229 | 3.2 | 12.9 | 0.00 | 0.03 | 0.03 | 32 | 1009.7 |
| 20260504210824 | 26 | 160 | 1.6 | 12.9 | 0.00 | 0.03 | 0.03 | 32 | 1009.6 |
| 20260504210318 | 26 | 288 | 1.6 | 9.7 | 0.00 | 0.03 | 0.03 | 34 | 1009.6 |
| 20260504205812 | 26 | 42 | 3.2 | 9.7 | 0.00 | 0.03 | 0.03 | 34 | 1009.6 |
| 20260504205306 | 25 | 279 | 3.2 | 9.7 | 0.00 | 0.03 | 0.03 | 31 | 1009.6 |
| 20260504203748 | 26 | 116 | 3.2 | 11.3 | 0.00 | 0.03 | 0.03 | 34 | 1009.6 |
| 20260504202740 | 26 | 231 | 1.6 | 11.3 | 0.00 | 0.03 | 0.03 | 33 | 1009.8 |
| 20260504202225 | 26 | 26 | 3.2 | 11.3 | 0.00 | 0.03 | 0.03 | 32 | 1009.8 |
| 20260504201719 | 26 | 319 | 3.2 | 11.3 | 0.00 | 0.03 | 0.03 | 34 | 1009.9 |
| 20260504201213 | 26 | 155 | 3.2 | 9.7 | 0.00 | 0.03 | 0.03 | 31 | 1009.9 |
| 20260504200708 | 26 | 32 | 1.6 | 6.4 | 0.00 | 0.03 | 0.03 | 30 | 1009.9 |
| 20260504195656 | 26 | 323 | 3.2 | 11.3 | 0.00 | 0.03 | 0.03 | 36 | 1010.0 |
| 20260504195149 | 26 | 233 | 3.2 | 11.3 | 0.00 | 0.03 | 0.03 | 31 | 1010.1 |
| 20260504194644 | 26 | 269 | 1.6 | 11.3 | 0.00 | 0.03 | 0.03 | 31 | 1010.3 |
| 20260504193126 | 25 | 250 | 3.2 | 9.7 | 0.00 | 0.03 | 0.03 | 33 | 1010.4 |
| 20260504192620 | 25 | 180 | 3.2 | 12.9 | 0.00 | 0.03 | 0.03 | 36 | 1010.5 |
| 20260504192114 | 25 | 205 | 3.2 | 12.9 | 0.00 | 0.03 | 0.03 | 33 | 1010.6 |
| 20260504191608 | 25 | 178 | 3.2 | 11.3 | 0.00 | 0.03 | 0.03 | 36 | 1010.6 |
| 20260504190555 | 25 | 261 | 3.2 | 11.3 | 0.00 | 0.03 | 0.03 | 34 | 1010.9 |
| 20260504190049 | 25 | 213 | 3.2 | 14.5 | 0.00 | 0.03 | 0.03 | 32 | 1011.1 |
| 20260504185544 | 25 | 217 | 1.6 | 8.0 | 0.00 | 0.03 | 0.03 | 33 | 1011.1 |
| 20260504185038 | 25 | 339 | 1.6 | 6.4 | 0.00 | 0.03 | 0.03 | 33 | 1011.3 |
| 20260504184532 | 25 | 261 | 1.6 | 9.7 | 0.00 | 0.03 | 0.03 | 35 | 1011.3 |
| 20260504184026 | 25 | 185 | 1.6 | 9.7 | 0.00 | 0.03 | 0.03 | 34 | 1011.4 |
| 20260504183520 | 25 | 224 | 3.2 | 11.3 | 0.00 | 0.03 | 0.03 | 35 | 1011.4 |
| 20260504183014 | 25 | 19 | 3.2 | 11.3 | 0.00 | 0.03 | 0.03 | 34 | 1011.5 |
| 20260504182002 | 25 | 64 | 1.6 | 14.5 | 0.00 | 0.03 | 0.03 | 33 | 1011.7 |
| 20260504181456 | 25 | 72 | 3.2 | 14.5 | 0.00 | 0.03 | 0.03 | 35 | 1011.7 |
| 20260504180443 | 24 | 187 | 1.6 | 4.8 | 0.00 | 0.03 | 0.03 | 35 | 1011.9 |
| 20260504175942 | 24 | 0 | 1.6 | 8.0 | 0.00 | 0.03 | 0.03 | 34 | 1012.0 |
| 20260504175427 | 23 | 0 | 3.2 | 9.7 | 0.00 | 0.03 | 0.03 | 33 | 1012.1 |
| 20260504174922 | 23 | 0 | 3.2 | 9.7 | 0.00 | 0.03 | 0.03 | 38 | 1012.1 |
| 20260504174420 | 23 | 0 | 3.2 | 20.9 | 0.00 | 0.03 | 0.03 | 35 | 1012.2 |
| 20260504173906 | 23 | 0 | 3.2 | 20.9 | 0.00 | 0.03 | 0.03 | 33 | 1012.2 |
| 20260504173400 | 23 | 0 | 1.6 | 6.4 | 0.00 | 0.03 | 0.03 | 36 | 1012.3 |
| 20260504172900 | 23 | 0 | 1.6 | 6.4 | 0.00 | 0.03 | 0.03 | 34 | 1012.4 |
| 20260504172357 | 23 | 0 | 1.6 | 4.8 | 0.00 | 0.03 | 0.03 | 36 | 1012.5 |
| 20260504171857 | 23 | 0 | 1.6 | 6.4 | 0.00 | 0.03 | 0.03 | 36 | 1012.6 |
| 20260504171358 | 23 | 0 | 1.6 | 9.7 | 0.00 | 0.03 | 0.03 | 35 | 1012.6 |
| 20260504170855 | 23 | 0 | 1.6 | 9.7 | 0.00 | 0.03 | 0.03 | 35 | 1012.7 |
| 20260504170356 | 23 | 0 | 1.6 | 6.4 | 0.00 | 0.03 | 0.03 | 35 | 1012.7 |
| 20260504160348 | 21 | 0 | 3.2 | 12.9 | 0.00 | 0.03 | 0.03 | 37 | 1013.4 |
| 20260504150840 | 20 | 0 | 1.6 | 9.7 | 0.00 | 0.03 | 0.03 | 40 | 1014.3 |
| 20260504140838 | 17 | 0 | 1.6 | 6.4 | 0.00 | 0.03 | 0.03 | 45 | 1014.3 |
| 20260504120300 | 8 | 0 | 0.0 | 3.2 | 0.00 | 0.03 | 0.03 | 79 | 1015.3 |
| 20260504110655 | 6 | 0 | 0.0 | 0.0 | 0.00 | 0.03 | 0.03 | 91 | 1015.6 |
| 20260504110149 | 6 | 0 | 0.0 | 0.0 | 0.03 | 0.03 | 0.03 | 91 | 1015.4 |
| 20260504100543 | 6 | 0 | 0.0 | 0.0 | 0.03 | 0.03 | 0.03 | 87 | 1015.3 |
| 20260504081905 | 7 | 0 | 0.0 | 0.0 | 0.00 | 0.00 | 0.00 | 78 | 1015.6 |
| 20260504081404 | 7 | 0 | 0.0 | 0.0 | 0.00 | 0.00 | 0.00 | 80 | 1015.6 |
| 20260504080903 | 7 | 0 | 0.0 | 0.0 | 0.00 | 0.00 | 0.00 | 80 | 1015.6 |
| 20260504080400 | 7 | 0 | 0.0 | 0.0 | 0.00 | 0.00 | 0.00 | 81 | 1015.6 |
| 20260504070354 | 6 | 0 | 0.0 | 0.0 | 0.00 | 0.00 | 0.00 | 84 | 1015.6 |
| 20260504050348 | 3 | 0 | 0.0 | 0.0 | 0.00 | 0.00 | 0.00 | 83 | 1016.1 |
| 20260504045848 | 3 | 0 | 0.0 | 0.0 | 0.00 | 0.00 | 0.00 | 83 | 1016.1 |
| 20260504045342 | 3 | 0 | 0.0 | 0.0 | 0.00 | 0.00 | 0.00 | 82 | 1016.2 |
| 20260504044836 | 3 | 0 | 0.0 | 0.0 | 0.00 | 0.00 | 0.00 | 82 | 1016.2 |
| 20260504043824 | 3 | 0 | 0.0 | 0.0 | 0.00 | 0.00 | 0.00 | 81 | 1016.2 |
| 20260504043325 | 3 | 0 | 0.0 | 0.0 | 0.00 | 0.00 | 0.00 | 81 | 1016.2 |
| 20260504042824 | 3 | 0 | 0.0 | 0.0 | 0.00 | 0.00 | 0.00 | 81 | 1016.2 |
| 20260504042324 | 3 | 0 | 0.0 | 0.0 | 0.00 | 0.00 | 0.00 | 81 | 1016.1 |
| 20260504041323 | 4 | 0 | 0.0 | 0.0 | 0.00 | 0.00 | 0.00 | 80 | 1016.0 |
| 20260504040825 | 4 | 0 | 0.0 | 0.0 | 0.00 | 0.00 | 0.00 | 80 | 1015.9 |
| 20260504035320 | 4 | 0 | 0.0 | 0.0 | 0.00 | 0.00 | 0.00 | 79 | 1016.0 |
| 20260504034821 | 4 | 0 | 0.0 | 0.0 | 0.00 | 0.00 | 0.00 | 78 | 1016.1 |
| 20260504034321 | 4 | 0 | 0.0 | 0.0 | 0.00 | 0.00 | 0.00 | 78 | 1016.1 |
| 20260504033818 | 5 | 0 | 0.0 | 0.0 | 0.00 | 0.00 | 0.00 | 77 | 1016.1 |
| 20260504033319 | 5 | 0 | 0.0 | 0.0 | 0.00 | 0.00 | 0.00 | 76 | 1016.1 |
| 20260504032819 | 5 | 0 | 0.0 | 0.0 | 0.00 | 0.00 | 0.00 | 76 | 1016.1 |
| 20260504032317 | 5 | 0 | 0.0 | 0.0 | 0.00 | 0.00 | 0.00 | 76 | 1016.0 |
| 20260504031815 | 5 | 0 | 0.0 | 0.0 | 0.00 | 0.00 | 0.00 | 75 | 1016.0 |
| 20260504031315 | 5 | 0 | 0.0 | 0.0 | 0.00 | 0.00 | 0.00 | 74 | 1015.9 |
| 20260504030815 | 5 | 0 | 0.0 | 0.0 | 0.00 | 0.00 | 0.00 | 74 | 1015.9 |
| 20260504030309 | 5 | 0 | 0.0 | 0.0 | 0.00 | 0.00 | 0.00 | 73 | 1015.9 |
| 20260504025802 | 5 | 0 | 0.0 | 0.0 | 0.00 | 0.00 | 0.00 | 73 | 1015.8 |
| 20260504025257 | 5 | 0 | 0.0 | 0.0 | 0.00 | 0.00 | 0.00 | 72 | 1015.8 |
| 20260504024752 | 5 | 0 | 0.0 | 0.0 | 0.00 | 0.00 | 0.00 | 72 | 1015.7 |
| 20260504024245 | 5 | 0 | 0.0 | 0.0 | 0.00 | 0.00 | 0.00 | 71 | 1015.7 |
| 20260504023739 | 6 | 0 | 0.0 | 0.0 | 0.00 | 0.00 | 0.00 | 71 | 1015.7 |
| 20260504023233 | 6 | 0 | 0.0 | 0.0 | 0.00 | 0.00 | 0.00 | 71 | 1015.6 |
| 20260504022727 | 6 | 0 | 0.0 | 0.0 | 0.00 | 0.00 | 0.00 | 71 | 1015.7 |
| 20260504022221 | 6 | 0 | 0.0 | 0.0 | 0.00 | 0.00 | 0.00 | 71 | 1015.7 |
| 20260504021714 | 6 | 0 | 0.0 | 0.0 | 0.00 | 0.00 | 0.00 | 71 | 1015.6 |
| 20260504020702 | 6 | 0 | 0.0 | 0.0 | 0.00 | 0.00 | 0.00 | 70 | 1015.5 |
| 20260504020157 | 6 | 0 | 0.0 | 0.0 | 0.00 | 0.00 | 0.00 | 69 | 1015.5 |
| 20260504015651 | 7 | 0 | 0.0 | 0.0 | 0.00 | 0.00 | 0.00 | 69 | 1015.4 |
| 20260504015145 | 7 | 0 | 0.0 | 0.0 | 0.00 | 0.00 | 0.00 | 68 | 1015.3 |
| 20260504014646 | 7 | 0 | 0.0 | 0.0 | 0.00 | 0.00 | 0.00 | 68 | 1015.3 |
| 20260504014147 | 7 | 0 | 0.0 | 0.0 | 0.00 | 0.00 | 0.00 | 68 | 1015.3 |
| 20260504013144 | 7 | 0 | 0.0 | 0.0 | 0.00 | 0.00 | 0.00 | 66 | 1015.1 |
| 20260504012645 | 8 | 0 | 0.0 | 0.0 | 0.00 | 0.00 | 0.00 | 66 | 1015.1 |
| 20260504011640 | 8 | 0 | 0.0 | 0.0 | 0.00 | 0.00 | 0.00 | 61 | 1014.9 |
| 20260504010639 | 8 | 0 | 0.0 | 0.0 | 0.00 | 0.00 | 0.00 | 61 | 1015.0 |
| 20260504010135 | 9 | 0 | 0.0 | 0.0 | 0.00 | 0.00 | 0.00 | 60 | 1015.0 |
| 20260504004636 | 10 | 0 | 0.0 | 0.0 | 0.00 | 0.00 | 0.00 | 56 | 1014.9 |
| 20260504003636 | 11 | 0 | 0.0 | 0.0 | 0.00 | 0.00 | 0.00 | 55 | 1014.8 |
| 20260504003137 | 11 | 0 | 0.0 | 0.0 | 0.00 | 0.00 | 0.00 | 54 | 1014.7 |
| 20260504002635 | 11 | 0 | 0.0 | 0.0 | 0.00 | 0.00 | 0.00 | 51 | 1014.7 |
| 20260504002132 | 12 | 0 | 0.0 | 0.0 | 0.00 | 0.00 | 0.00 | 50 | 1014.7 |
| 20260504001633 | 12 | 0 | 0.0 | 0.0 | 0.00 | 0.00 | 0.00 | 49 | 1014.8 |
| 20260504001133 | 12 | 0 | 0.0 | 0.0 | 0.00 | 0.00 | 0.00 | 46 | 1014.7 |
| 20260504000631 | 13 | 0 | 0.0 | 0.0 | 0.00 | 0.00 | 0.00 | 46 | 1014.7 |
| 20260504000131 | 13 | 0 | 0.0 | 0.0 | 0.00 | 0.00 | 0.00 | 43 | 1014.7 |
| 20260503235630 | 13 | 0 | 0.0 | 0.0 | 0.00 | 0.00 | 0.00 | 40 | 1014.6 |
| 20260503234631 | 15 | 0 | 0.0 | 0.0 | 0.00 | 0.00 | 0.00 | 36 | 1014.5 |
| 20260503234130 | 15 | 0 | 0.0 | 0.0 | 0.00 | 0.00 | 0.00 | 34 | 1014.5 |
| 20260503233631 | 15 | 0 | 0.0 | 1.6 | 0.00 | 0.00 | 0.00 | 33 | 1014.5 |
| 20260503233129 | 15 | 0 | 0.0 | 1.6 | 0.00 | 0.00 | 0.00 | 32 | 1014.5 |
| 20260503232627 | 15 | 0 | 0.0 | 1.6 | 0.00 | 0.00 | 0.00 | 33 | 1014.5 |
| 20260503232128 | 16 | 0 | 0.0 | 1.6 | 0.00 | 0.00 | 0.00 | 31 | 1014.4 |
| 20260503231628 | 16 | 0 | 0.0 | 1.6 | 0.00 | 0.00 | 0.00 | 32 | 1014.4 |
| 20260503231128 | 16 | 0 | 0.0 | 1.6 | 0.00 | 0.00 | 0.00 | 30 | 1014.3 |
| 20260503230627 | 16 | 0 | 0.0 | 6.4 | 0.00 | 0.00 | 0.00 | 31 | 1014.3 |
| 20260503225628 | 16 | 0 | 1.6 | 4.8 | 0.00 | 0.00 | 0.00 | 29 | 1014.2 |
| 20260503225128 | 16 | 0 | 0.0 | 4.8 | 0.00 | 0.00 | 0.00 | 29 | 1014.2 |
| 20260503224628 | 16 | 0 | 0.0 | 3.2 | 0.00 | 0.00 | 0.00 | 30 | 1014.3 |
| 20260503224128 | 17 | 0 | 0.0 | 1.6 | 0.00 | 0.00 | 0.00 | 28 | 1014.3 |
| 20260503223627 | 17 | 0 | 0.0 | 6.4 | 0.00 | 0.00 | 0.00 | 29 | 1014.3 |
| 20260503222627 | 17 | 0 | 0.0 | 3.2 | 0.00 | 0.00 | 0.00 | 28 | 1014.4 |
| 20260503222127 | 18 | 0 | 0.0 | 3.2 | 0.00 | 0.00 | 0.00 | 26 | 1014.4 |
| 20260503221627 | 18 | 0 | 0.0 | 4.8 | 0.00 | 0.00 | 0.00 | 27 | 1014.4 |
| 20260503220628 | 18 | 0 | 1.6 | 6.4 | 0.00 | 0.00 | 0.00 | 27 | 1014.5 |
| 20260503220122 | 18 | 0 | 1.6 | 6.4 | 0.00 | 0.00 | 0.00 | 27 | 1014.5 |